When you browse on this site, cookies collect data to enhance your experience and personalize the content and advertising you see.
Visit our Privacy Policy to learn more. By continuing to use the site, you agree to this use of cookies and data.
  • In Netherlands
  • List of Countries
  • For 7 days
  • Water Temperature
  • Weather Map
  • Weather Widgets
  • user-avatar
    Login

    Hourly Weather Bururi

    Today, 27 May, Wednesday

    Time Temperature Precipitation Wind Pressure Humidity
    00:00 +16°C° 0 mm 1 mps 617 mmHg 87%
    01:00 +16°C° 0 mm 1 mps 617 mmHg 87%
    02:00 +16°C° 0 mm 1 mps 617 mmHg 86%
    03:00 +15°C° 0 mm 1 mps 617 mmHg 86%
    04:00 +15°C° 0 mm 1 mps 617 mmHg 86%
    05:00 +15°C° 0 mm 1 mps 617 mmHg 86%
    06:00 +18°C° 0 mm 1 mps 618 mmHg 84%
    07:00 +19°C° 0 mm 1 mps 618 mmHg 81%
    08:00 +19°C° 0 mm 0 mps 619 mmHg 78%
    09:00 +22°C° 0 mm 1 mps 620 mmHg 73%
    10:00 +23°C° 0 mm 1 mps 620 mmHg 68%
    11:00 +24°C° 0 mm 2 mps 620 mmHg 63%
    12:00 +24°C° 0.2 mm 2 mps 619 mmHg 65%
    13:00 +24°C° 0.2 mm 2 mps 618 mmHg 67%
    14:00 +24°C° 0 mm 2 mps 618 mmHg 67%
    15:00 +23°C° 0.3 mm 1 mps 618 mmHg 72%
    16:00 +23°C° 0.3 mm 1 mps 617 mmHg 77%
    17:00 +22°C° 0.3 mm 1 mps 617 mmHg 82%
    18:00 +21°C° 0.1 mm 1 mps 617 mmHg 84%
    19:00 +19°C° 0.1 mm 1 mps 617 mmHg 87%
    20:00 +18°C° 0.1 mm 1 mps 617 mmHg 90%
    21:00 +18°C° 0 mm 1 mps 617 mmHg 89%
    22:00 +18°C° 0 mm 1 mps 617 mmHg 89%
    23:00 +16°C° 0 mm 1 mps 618 mmHg 88%

    Tomorrow, 28 May, Thursday

    Time Temperature Precipitation Wind Pressure Humidity
    00:00 +16°C° 0 mm 1 mps 617 mmHg 87%
    01:00 +16°C° 0 mm 1 mps 617 mmHg 87%
    02:00 +16°C° 0 mm 1 mps 616 mmHg 86%
    03:00 +16°C° 0 mm 1 mps 616 mmHg 85%
    04:00 +15°C° 0 mm 1 mps 616 mmHg 84%
    05:00 +15°C° 0 mm 1 mps 616 mmHg 84%
    06:00 +18°C° 0 mm 1 mps 617 mmHg 80%
    07:00 +19°C° 0 mm 1 mps 618 mmHg 77%
    08:00 +21°C° 0 mm 1 mps 619 mmHg 73%
    09:00 +22°C° 0 mm 1 mps 619 mmHg 69%
    10:00 +23°C° 0 mm 2 mps 619 mmHg 65%
    11:00 +24°C° 0 mm 3 mps 619 mmHg 62%
    12:00 +24°C° 0.2 mm 2 mps 619 mmHg 64%
    13:00 +24°C° 0.2 mm 2 mps 618 mmHg 66%
    14:00 +24°C° 0.2 mm 2 mps 618 mmHg 69%
    15:00 +23°C° 0.4 mm 2 mps 617 mmHg 74%
    16:00 +22°C° 0.4 mm 1 mps 617 mmHg 79%
    17:00 +21°C° 0.4 mm 1 mps 616 mmHg 84%
    18:00 +20°C° 0.2 mm 1 mps 616 mmHg 86%
    19:00 +19°C° 0.2 mm 1 mps 616 mmHg 87%
    20:00 +17°C° 0.2 mm 2 mps 617 mmHg 88%
    21:00 +16°C° 0 mm 1 mps 617 mmHg 88%
    22:00 +16°C° 0 mm 1 mps 617 mmHg 87%
    23:00 +16°C° 0 mm 1 mps 617 mmHg 86%

    Day after tomorrow, 29 May, Friday

    Time Temperature Precipitation Wind Pressure Humidity
    00:00 +16°C° 0 mm 1 mps 616 mmHg 85%
    01:00 +16°C° 0 mm 1 mps 616 mmHg 84%
    02:00 +16°C° 0 mm 1 mps 616 mmHg 82%
    03:00 +16°C° 0 mm 1 mps 616 mmHg 81%
    04:00 +15°C° 0 mm 1 mps 616 mmHg 80%
    05:00 +15°C° 0 mm 1 mps 616 mmHg 79%
    06:00 +18°C° 0 mm 1 mps 617 mmHg 77%
    07:00 +18°C° 0 mm 2 mps 618 mmHg 76%
    08:00 +19°C° 0 mm 2 mps 619 mmHg 75%
    09:00 +21°C° 0 mm 2 mps 619 mmHg 70%
    10:00 +23°C° 0 mm 2 mps 619 mmHg 66%
    11:00 +24°C° 0 mm 3 mps 619 mmHg 61%
    12:00 +24°C° 0.1 mm 2 mps 619 mmHg 64%
    13:00 +23°C° 0.1 mm 2 mps 618 mmHg 67%
    14:00 +23°C° 0.1 mm 2 mps 617 mmHg 70%
    15:00 +21°C° 0.3 mm 2 mps 617 mmHg 74%
    16:00 +21°C° 0.3 mm 2 mps 616 mmHg 77%
    17:00 +21°C° 0.3 mm 1 mps 616 mmHg 81%
    18:00 +20°C° 0.1 mm 1 mps 616 mmHg 83%
    19:00 +18°C° 0.1 mm 2 mps 616 mmHg 85%
    20:00 +16°C° 0.1 mm 2 mps 616 mmHg 87%
    21:00 +16°C° 0 mm 2 mps 616 mmHg 86%
    22:00 +16°C° 0 mm 1 mps 616 mmHg 85%
    23:00 +16°C° 0 mm 1 mps 616 mmHg 84%

    30 May, Saturday

    Time Temperature Precipitation Wind Pressure Humidity
    00:00 +16°C° 0 mm 1 mps 616 mmHg 84%
    01:00 +16°C° 0 mm 1 mps 616 mmHg 83%
    02:00 +16°C° 0 mm 1 mps 616 mmHg 82%
    03:00 +15°C° 0 mm 1 mps 616 mmHg 80%
    04:00 +15°C° 0 mm 1 mps 616 mmHg 79%
    05:00 +15°C° 0 mm 2 mps 616 mmHg 78%
    06:00 +17°C° 0 mm 2 mps 617 mmHg 76%
    07:00 +18°C° 0 mm 2 mps 618 mmHg 73%
    08:00 +19°C° 0 mm 2 mps 618 mmHg 71%
    09:00 +20°C° 0 mm 2 mps 619 mmHg 67%
    10:00 +21°C° 0 mm 2 mps 619 mmHg 62%
    11:00 +24°C° 0 mm 2 mps 619 mmHg 58%
    12:00 +23°C° 0 mm 2 mps 619 mmHg 60%
    13:00 +23°C° 0 mm 2 mps 618 mmHg 61%
    14:00 +22°C° 0 mm 3 mps 617 mmHg 63%
    15:00 +23°C° 0.1 mm 2 mps 617 mmHg 67%
    16:00 +21°C° 0.1 mm 2 mps 617 mmHg 71%
    17:00 +22°C° 0.1 mm 1 mps 617 mmHg 76%
    18:00 +20°C° 0 mm 1 mps 617 mmHg 78%
    19:00 +19°C° 0 mm 1 mps 617 mmHg 80%
    20:00 +16°C° 0 mm 2 mps 617 mmHg 82%
    21:00 +16°C° 0 mm 1 mps 617 mmHg 81%
    22:00 +16°C° 0 mm 1 mps 617 mmHg 80%
    23:00 +16°C° 0 mm 1 mps 617 mmHg 79%

    31 May, Sunday

    Time Temperature Precipitation Wind Pressure Humidity
    00:00 +16°C° 0 mm 1 mps 617 mmHg 79%
    01:00 +16°C° 0 mm 1 mps 616 mmHg 78%
    02:00 +16°C° 0 mm 1 mps 616 mmHg 77%
    03:00 +15°C° 0 mm 1 mps 616 mmHg 78%
    04:00 +15°C° 0 mm 1 mps 616 mmHg 78%
    05:00 +15°C° 0 mm 2 mps 617 mmHg 79%
    06:00 +16°C° 0 mm 2 mps 617 mmHg 77%
    07:00 +17°C° 0 mm 2 mps 618 mmHg 75%
    08:00 +18°C° 0 mm 2 mps 619 mmHg 73%
    09:00 +20°C° 0 mm 2 mps 619 mmHg 68%
    10:00 +21°C° 0 mm 2 mps 620 mmHg 64%
    11:00 +23°C° 0 mm 2 mps 620 mmHg 59%
    12:00 +22°C° 0 mm 3 mps 619 mmHg 59%
    13:00 +22°C° 0 mm 3 mps 619 mmHg 60%
    14:00 +22°C° 0 mm 3 mps 618 mmHg 60%
    15:00 +23°C° 0 mm 2 mps 618 mmHg 64%
    16:00 +21°C° 0 mm 2 mps 618 mmHg 69%
    17:00 +21°C° 0 mm 1 mps 617 mmHg 73%
    18:00 +20°C° 0 mm 1 mps 617 mmHg 75%
    19:00 +18°C° 0 mm 1 mps 617 mmHg 77%
    20:00 +15°C° 0 mm 1 mps 617 mmHg 79%
    21:00 +15°C° 0 mm 1 mps 617 mmHg 78%
    22:00 +15°C° 0 mm 1 mps 617 mmHg 76%
    23:00 +15°C° 0 mm 1 mps 617 mmHg 75%

    1 June, Monday

    Time Temperature Precipitation Wind Pressure Humidity
    00:00 +15°C° 0 mm 1 mps 617 mmHg 73%
    01:00 +15°C° 0 mm 1 mps 617 mmHg 71%
    02:00 +15°C° 0 mm 1 mps 616 mmHg 69%
    03:00 +14°C° 0 mm 1 mps 617 mmHg 70%
    04:00 +14°C° 0 mm 2 mps 617 mmHg 71%
    05:00 +14°C° 0 mm 2 mps 617 mmHg 72%
    06:00 +16°C° 0 mm 2 mps 618 mmHg 71%
    07:00 +17°C° 0 mm 2 mps 619 mmHg 70%
    08:00 +18°C° 0 mm 2 mps 619 mmHg 69%
    09:00 +19°C° 0 mm 2 mps 620 mmHg 66%
    10:00 +20°C° 0 mm 2 mps 620 mmHg 64%
    11:00 +21°C° 0 mm 2 mps 620 mmHg 61%
    12:00 +21°C° 0 mm 2 mps 619 mmHg 62%
    13:00 +21°C° 0 mm 2 mps 619 mmHg 62%
    14:00 +21°C° 0 mm 2 mps 618 mmHg 63%
    15:00 +21°C° 0 mm 2 mps 618 mmHg 66%
    16:00 +21°C° 0 mm 1 mps 617 mmHg 70%
    17:00 +21°C° 0 mm 1 mps 617 mmHg 73%
    18:00 +19°C° 0 mm 1 mps 617 mmHg 75%
    19:00 +18°C° 0 mm 1 mps 617 mmHg 77%
    20:00 +15°C° 0 mm 2 mps 617 mmHg 80%
    21:00 +15°C° 0 mm 1 mps 617 mmHg 78%
    22:00 +15°C° 0 mm 1 mps 617 mmHg 77%
    23:00 +15°C° 0 mm 1 mps 617 mmHg 76%
    Show more